EWG2883 LIRF-EDDS

Flight info

Callsign EWG2883
Flight time 1h 12m
Altitude 38000
Route SOVAN DCT AMTEL DCT LOMED DCT IPLUB DCT LUPOS DCT RIPDU DCT IVLOX DCT OSBUL DCT MISPO DCT TZO DCT ABESI N851 UTAVO DCT SOPER N851 ROMIR T125 REUTL REUTL1W
Aircraft A320/M-SDE3FGHIRWY/LB1

Departure

Time 2026-05-07 19:43
Airport Rome–Fiumicino Leonardo da Vinci International Airport (LIRF)

Arrival

Time 2026-05-07 20:55
Airport Stuttgart Airport (EDDS)
Time Latitude Longitude Altitude Speed Heading
2026-05-07 19:11 41.79633 12.26210 14 ft 0 kts 115°
2026-05-07 19:27 41.79633 12.26209 14 ft 0 kts 115°
2026-05-07 19:33 41.79634 12.26207 15 ft 2 kts 115°
2026-05-07 19:34 41.79645 12.26175 15 ft 4 kts 115°
2026-05-07 19:34 41.79654 12.26149 16 ft 3 kts 115°
2026-05-07 19:34 41.79660 12.26128 14 ft 4 kts 45°
2026-05-07 19:34 41.79640 12.26113 16 ft 4 kts 25°
2026-05-07 19:35 41.79633 12.26108 15 ft 0 kts 25°
2026-05-07 19:37 41.79659 12.26125 14 ft 8 kts 25°
2026-05-07 19:37 41.79729 12.26147 16 ft 12 kts 340°
2026-05-07 19:38 41.79775 12.26044 15 ft 14 kts 295°
2026-05-07 19:38 41.79820 12.25915 14 ft 16 kts 295°
2026-05-07 19:38 41.79866 12.25816 14 ft 9 kts 348°
2026-05-07 19:38 41.79940 12.25864 15 ft 14 kts 27°
2026-05-07 19:39 41.80037 12.25925 15 ft 17 kts 23°
2026-05-07 19:39 41.80151 12.25994 14 ft 19 kts 25°
2026-05-07 19:39 41.80281 12.26074 14 ft 22 kts 24°
2026-05-07 19:39 41.80373 12.26131 15 ft 23 kts 25°
2026-05-07 19:40 41.80525 12.26225 16 ft 17 kts 69°
2026-05-07 19:40 41.80568 12.26384 16 ft 19 kts 69°
2026-05-07 19:40 41.80618 12.26567 16 ft 22 kts 70°
2026-05-07 19:40 41.80675 12.26772 14 ft 25 kts 70°
2026-05-07 19:41 41.80732 12.26977 13 ft 20 kts 69°
2026-05-07 19:41 41.80833 12.27029 14 ft 19 kts 336°
2026-05-07 19:41 41.80919 12.26988 13 ft 10 kts 341°
2026-05-07 19:41 41.80954 12.26911 13 ft 12 kts 252°
2026-05-07 19:42 41.80910 12.26753 13 ft 38 kts 250°
2026-05-07 19:42 41.80736 12.26118 20 ft 103 kts 250°
2026-05-07 19:42 41.80428 12.25000 18 ft 153 kts 249°
2026-05-07 19:42 41.80039 12.23587 423 ft 161 kts 252°
2026-05-07 19:43 41.79651 12.22184 1084 ft 160 kts 252°
2026-05-07 19:43 41.79259 12.20788 1705 ft 159 kts 254°
2026-05-07 19:43 41.79139 12.19272 1989 ft 175 kts 286°
2026-05-07 19:43 41.79822 12.17909 2436 ft 186 kts 331°
2026-05-07 19:44 41.81062 12.17317 2877 ft 196 kts 347°
2026-05-07 19:44 41.82469 12.16843 3138 ft 223 kts 348°
2026-05-07 19:44 41.84081 12.16333 3511 ft 248 kts 348°
2026-05-07 19:44 41.85797 12.15786 4277 ft 258 kts 348°
2026-05-07 19:45 41.87577 12.15208 5088 ft 267 kts 347°
2026-05-07 19:45 41.89404 12.14603 5919 ft 274 kts 347°
2026-05-07 19:45 41.91253 12.13946 6705 ft 282 kts 344°
2026-05-07 19:45 41.93152 12.13218 7529 ft 286 kts 343°
2026-05-07 19:46 41.95076 12.12471 8393 ft 289 kts 343°
2026-05-07 19:46 41.96388 12.11966 8970 ft 292 kts 343°
2026-05-07 19:46 41.98328 12.11234 9817 ft 295 kts 343°
2026-05-07 19:46 42.00332 12.10488 10413 ft 308 kts 343°
2026-05-07 19:47 42.02474 12.09696 10646 ft 331 kts 343°
2026-05-07 19:47 42.04777 12.08853 10805 ft 354 kts 343°
2026-05-07 19:47 42.07210 12.07964 11188 ft 367 kts 343°
2026-05-07 19:47 42.09694 12.07058 11814 ft 372 kts 343°
2026-05-07 19:48 42.12207 12.06142 12472 ft 376 kts 343°
2026-05-07 19:48 42.14740 12.05217 13142 ft 379 kts 343°
2026-05-07 19:48 42.17301 12.04284 13809 ft 383 kts 343°
2026-05-07 19:48 42.19928 12.03546 14339 ft 388 kts 349°
2026-05-07 19:49 42.22602 12.02946 14945 ft 391 kts 348°
2026-05-07 19:49 42.25294 12.02343 15530 ft 394 kts 348°
2026-05-07 19:49 42.27976 12.01741 16109 ft 397 kts 348°
2026-05-07 19:49 42.30711 12.01125 16713 ft 400 kts 348°
2026-05-07 19:50 42.33466 12.00503 17327 ft 403 kts 348°
2026-05-07 19:50 42.36247 11.99874 17948 ft 407 kts 348°
2026-05-07 19:50 42.39056 11.99240 18542 ft 411 kts 348°
2026-05-07 19:50 42.41882 11.98605 19132 ft 413 kts 347°
2026-05-07 19:51 42.44723 11.97969 19718 ft 415 kts 347°
2026-05-07 19:51 42.47574 11.97329 20286 ft 417 kts 347°
2026-05-07 19:51 42.50445 11.96682 20820 ft 419 kts 347°
2026-05-07 19:51 42.53335 11.96024 21333 ft 422 kts 347°
2026-05-07 19:52 42.56237 11.95360 21823 ft 424 kts 347°
2026-05-07 19:52 42.59159 11.94694 22293 ft 427 kts 347°
2026-05-07 19:52 42.62096 11.94029 22761 ft 429 kts 347°
2026-05-07 19:52 42.65051 11.93360 23193 ft 432 kts 347°
2026-05-07 19:53 42.68025 11.92686 23606 ft 435 kts 347°
2026-05-07 19:53 42.71018 11.92008 23968 ft 437 kts 346°
2026-05-07 19:53 42.74023 11.91324 24326 ft 439 kts 346°
2026-05-07 19:53 42.77009 11.90641 24666 ft 441 kts 346°
2026-05-07 19:54 42.80048 11.89945 25007 ft 443 kts 346°
2026-05-07 19:54 42.83037 11.88980 25375 ft 441 kts 337°
2026-05-07 19:54 42.85865 11.87424 25725 ft 437 kts 328°
2026-05-07 19:54 42.88556 11.85467 26081 ft 438 kts 327°
2026-05-07 19:55 42.91244 11.83495 26433 ft 440 kts 327°
2026-05-07 19:55 42.93947 11.81513 26769 ft 442 kts 327°
2026-05-07 19:55 42.96663 11.79521 27106 ft 444 kts 326°
2026-05-07 19:55 42.99390 11.77521 27429 ft 445 kts 326°
2026-05-07 19:56 43.02121 11.75517 27783 ft 447 kts 326°
2026-05-07 19:56 43.04855 11.73513 28304 ft 445 kts 326°
2026-05-07 19:56 43.07582 11.71517 28805 ft 443 kts 326°
2026-05-07 19:56 43.10290 11.69533 29309 ft 441 kts 326°
2026-05-07 19:57 43.12951 11.67578 29837 ft 439 kts 325°
2026-05-07 19:57 43.15633 11.65601 30314 ft 437 kts 324°
2026-05-07 19:57 43.18304 11.63627 30749 ft 435 kts 324°
2026-05-07 19:57 43.20969 11.61656 31166 ft 434 kts 324°
2026-05-07 19:58 43.23628 11.59687 31585 ft 433 kts 324°
2026-05-07 19:58 43.26280 11.57726 32058 ft 432 kts 323°
2026-05-07 19:58 43.28920 11.55771 32515 ft 430 kts 323°
2026-05-07 19:58 43.31550 11.53822 32943 ft 429 kts 323°
2026-05-07 19:59 43.34172 11.51879 33353 ft 428 kts 323°
2026-05-07 19:59 43.36794 11.49931 33759 ft 428 kts 322°
2026-05-07 19:59 43.39412 11.47984 34155 ft 427 kts 322°
2026-05-07 19:59 43.42031 11.46035 34524 ft 427 kts 322°
2026-05-07 20:00 43.44613 11.44114 34870 ft 427 kts 322°
2026-05-07 20:00 43.47229 11.42169 35233 ft 426 kts 323°
2026-05-07 20:00 43.49840 11.40227 35586 ft 425 kts 323°
2026-05-07 20:00 43.52439 11.38288 35903 ft 425 kts 322°
2026-05-07 20:01 43.55041 11.36341 36205 ft 425 kts 323°
2026-05-07 20:01 43.57643 11.34392 36500 ft 426 kts 323°
2026-05-07 20:01 43.60251 11.32435 36796 ft 426 kts 323°
2026-05-07 20:01 43.62854 11.30481 37093 ft 426 kts 323°
2026-05-07 20:02 43.65458 11.28521 37338 ft 427 kts 323°
2026-05-07 20:02 43.68067 11.26557 37619 ft 427 kts 323°
2026-05-07 20:02 43.70682 11.24590 37793 ft 428 kts 323°
2026-05-07 20:02 43.73296 11.22623 37969 ft 429 kts 323°
2026-05-07 20:03 43.78565 11.18647 38001 ft 433 kts 323°
2026-05-07 20:03 43.83859 11.14654 38002 ft 433 kts 323°
2026-05-07 20:04 43.89156 11.10652 38017 ft 433 kts 323°
2026-05-07 20:04 43.94445 11.06644 38027 ft 433 kts 323°
2026-05-07 20:05 43.99731 11.02624 38047 ft 433 kts 323°
2026-05-07 20:05 44.04981 10.98527 38078 ft 431 kts 321°
2026-05-07 20:06 44.10040 10.94100 38128 ft 429 kts 319°
2026-05-07 20:06 44.15042 10.89567 38126 ft 429 kts 320°
2026-05-07 20:07 44.20060 10.85081 38138 ft 429 kts 320°
2026-05-07 20:07 44.23002 10.82481 38137 ft 429 kts 320°
2026-05-07 20:08 44.28055 10.78029 38132 ft 429 kts 320°
2026-05-07 20:08 44.33106 10.73586 38131 ft 429 kts 320°
2026-05-07 20:09 44.38142 10.69116 38114 ft 429 kts 320°
2026-05-07 20:10 44.45691 10.62404 38114 ft 428 kts 320°
2026-05-07 20:10 44.50714 10.57927 38129 ft 428 kts 320°
2026-05-07 20:11 44.55734 10.53428 38116 ft 428 kts 320°
2026-05-07 20:11 44.60743 10.48890 38099 ft 428 kts 320°
2026-05-07 20:12 44.65746 10.44340 38084 ft 429 kts 320°
2026-05-07 20:12 44.70755 10.39783 38076 ft 429 kts 320°
2026-05-07 20:13 44.75761 10.35231 38066 ft 428 kts 320°
2026-05-07 20:13 44.80731 10.30700 38027 ft 428 kts 320°
2026-05-07 20:14 44.85644 10.25989 38018 ft 426 kts 317°
2026-05-07 20:14 44.90357 10.20953 38017 ft 425 kts 316°
2026-05-07 20:15 44.95037 10.15854 38026 ft 425 kts 316°
2026-05-07 20:15 44.99765 10.10806 38011 ft 427 kts 317°
2026-05-07 20:16 45.04533 10.05785 37994 ft 427 kts 317°
2026-05-07 20:16 45.09268 10.00782 37996 ft 427 kts 317°
2026-05-07 20:17 45.14025 9.95723 37990 ft 428 kts 317°
2026-05-07 20:17 45.18784 9.90643 37991 ft 428 kts 317°
2026-05-07 20:18 45.23547 9.85552 37985 ft 429 kts 317°
2026-05-07 20:18 45.28322 9.80456 37989 ft 430 kts 317°
2026-05-07 20:19 45.33096 9.75344 38004 ft 430 kts 317°
2026-05-07 20:19 45.37865 9.70217 38043 ft 430 kts 317°
2026-05-07 20:20 45.42645 9.65069 38045 ft 431 kts 317°
2026-05-07 20:20 45.47429 9.59900 38049 ft 432 kts 317°
2026-05-07 20:21 45.52215 9.54719 38053 ft 432 kts 317°
2026-05-07 20:21 45.57141 9.49759 38057 ft 439 kts 326°
2026-05-07 20:22 45.62498 9.45678 38072 ft 440 kts 326°
2026-05-07 20:22 45.67897 9.41545 38062 ft 440 kts 326°
2026-05-07 20:23 45.73290 9.37396 38019 ft 440 kts 326°
2026-05-07 20:23 45.78692 9.33237 38015 ft 441 kts 326°
2026-05-07 20:24 45.84088 9.29077 38025 ft 441 kts 326°
2026-05-07 20:24 45.89490 9.24903 38022 ft 440 kts 326°
2026-05-07 20:25 45.94855 9.20748 38035 ft 441 kts 326°
2026-05-07 20:25 46.00259 9.16548 38062 ft 441 kts 326°
2026-05-07 20:26 46.05657 9.12343 38059 ft 441 kts 327°
2026-05-07 20:26 46.11050 9.08136 38027 ft 440 kts 326°
2026-05-07 20:27 46.16681 9.04567 38018 ft 449 kts 341°
2026-05-07 20:27 46.22934 9.03363 38032 ft 455 kts 350°
2026-05-07 20:28 46.29211 9.02535 38029 ft 456 kts 350°
2026-05-07 20:28 46.35525 9.01673 38029 ft 455 kts 350°
2026-05-07 20:29 46.41835 9.00821 38049 ft 455 kts 350°
2026-05-07 20:29 46.48147 8.99967 38048 ft 455 kts 349°
2026-05-07 20:30 46.54462 8.99114 38053 ft 456 kts 350°
2026-05-07 20:30 46.60742 8.98270 38056 ft 456 kts 350°
2026-05-07 20:31 46.67050 8.97422 38067 ft 454 kts 350°
2026-05-07 20:31 46.73351 8.96568 38070 ft 455 kts 350°
2026-05-07 20:32 46.79645 8.95711 38063 ft 454 kts 350°
2026-05-07 20:32 46.85949 8.94845 38083 ft 456 kts 351°
2026-05-07 20:33 46.92260 8.93996 38066 ft 455 kts 350°
2026-05-07 20:33 46.98574 8.93138 38063 ft 455 kts 350°
2026-05-07 20:34 47.04888 8.92264 38089 ft 456 kts 350°
2026-05-07 20:34 47.11212 8.91383 38078 ft 456 kts 350°
2026-05-07 20:35 47.17533 8.90503 38040 ft 457 kts 350°
2026-05-07 20:35 47.20657 8.90068 37768 ft 455 kts 350°
2026-05-07 20:35 47.23805 8.89633 37497 ft 454 kts 350°
2026-05-07 20:35 47.26975 8.89396 37240 ft 458 kts 358°
2026-05-07 20:36 47.30153 8.89877 36974 ft 462 kts
2026-05-07 20:36 47.32275 8.90630 36797 ft 465 kts 13°
2026-05-07 20:36 47.35347 8.92185 36540 ft 467 kts 15°
2026-05-07 20:36 47.38380 8.93755 36289 ft 467 kts 15°
2026-05-07 20:37 47.41445 8.95335 36035 ft 467 kts 15°
2026-05-07 20:37 47.44512 8.96912 35785 ft 467 kts 15°
2026-05-07 20:37 47.47577 8.98487 35549 ft 466 kts 15°
2026-05-07 20:37 47.50641 9.00063 35307 ft 465 kts 15°
2026-05-07 20:38 47.53701 9.01641 35032 ft 465 kts 15°
2026-05-07 20:38 47.56762 9.03223 34218 ft 468 kts 15°
2026-05-07 20:38 47.59855 9.04823 33219 ft 472 kts 15°
2026-05-07 20:38 47.62954 9.06427 32346 ft 472 kts 15°
2026-05-07 20:39 47.66038 9.08154 31400 ft 476 kts 21°
2026-05-07 20:39 47.68951 9.10540 30410 ft 481 kts 31°
2026-05-07 20:39 47.71599 9.13621 29222 ft 487 kts 41°
2026-05-07 20:39 47.73906 9.17328 27965 ft 490 kts 50°
2026-05-07 20:40 47.76004 9.21332 26677 ft 490 kts 46°
2026-05-07 20:40 47.78494 9.24772 25358 ft 489 kts 35°
2026-05-07 20:40 47.81338 9.27371 24412 ft 482 kts 24°
2026-05-07 20:40 47.84399 9.29242 23579 ft 472 kts 16°
2026-05-07 20:41 47.87555 9.30401 22660 ft 463 kts
2026-05-07 20:41 47.90728 9.30854 21854 ft 453 kts
2026-05-07 20:41 47.93854 9.31112 21051 ft 447 kts
2026-05-07 20:41 47.96941 9.31360 20260 ft 441 kts
2026-05-07 20:42 47.99987 9.31595 19471 ft 436 kts
2026-05-07 20:42 48.03006 9.31823 18692 ft 432 kts
2026-05-07 20:42 48.05998 9.32047 17875 ft 428 kts
2026-05-07 20:42 48.08960 9.32268 17126 ft 423 kts
2026-05-07 20:43 48.11883 9.32487 16446 ft 418 kts
2026-05-07 20:43 48.14778 9.32708 15776 ft 414 kts
2026-05-07 20:43 48.17648 9.32946 15124 ft 411 kts
2026-05-07 20:43 48.20488 9.33305 14482 ft 409 kts
2026-05-07 20:44 48.23305 9.33763 13817 ft 406 kts
2026-05-07 20:44 48.26063 9.34262 13115 ft 402 kts
2026-05-07 20:44 48.28821 9.34768 12442 ft 397 kts
2026-05-07 20:44 48.31551 9.35254 11739 ft 393 kts
2026-05-07 20:45 48.34255 9.35714 11160 ft 386 kts
2026-05-07 20:45 48.36836 9.36392 11027 ft 369 kts 13°
2026-05-07 20:45 48.39191 9.37690 10901 ft 352 kts 22°
2026-05-07 20:45 48.41336 9.39148 10774 ft 325 kts 22°
2026-05-07 20:46 48.43333 9.40504 10483 ft 309 kts 22°
2026-05-07 20:46 48.45281 9.41824 10232 ft 304 kts 22°
2026-05-07 20:46 48.47198 9.43121 9999 ft 301 kts 22°
2026-05-07 20:46 48.49096 9.44407 9842 ft 299 kts 21°
2026-05-07 20:47 48.50995 9.45695 9706 ft 299 kts 22°
2026-05-07 20:47 48.52890 9.46979 9572 ft 298 kts 22°
2026-05-07 20:47 48.54780 9.48261 9393 ft 298 kts 22°
2026-05-07 20:47 48.56681 9.49552 8977 ft 299 kts 22°
2026-05-07 20:48 48.58566 9.50837 8678 ft 296 kts 22°
2026-05-07 20:48 48.60428 9.52110 8168 ft 292 kts 22°
2026-05-07 20:48 48.62266 9.53370 7537 ft 289 kts 23°
2026-05-07 20:48 48.64087 9.54618 6951 ft 285 kts 23°
2026-05-07 20:49 48.65879 9.55847 6410 ft 280 kts 23°
2026-05-07 20:49 48.67659 9.56902 5791 ft 275 kts 13°
2026-05-07 20:49 48.69498 9.57195 5612 ft 255 kts 356°
2026-05-07 20:49 48.71187 9.56723 5539 ft 241 kts 338°
2026-05-07 20:50 48.72623 9.55429 5148 ft 242 kts 317°
2026-05-07 20:50 48.73647 9.53413 4776 ft 243 kts 295°
2026-05-07 20:50 48.74103 9.50955 4390 ft 245 kts 274°
2026-05-07 20:50 48.73916 9.48430 4046 ft 237 kts 253°
2026-05-07 20:51 48.73474 9.46115 4011 ft 221 kts 255°
2026-05-07 20:51 48.73068 9.43905 3807 ft 217 kts 254°
2026-05-07 20:51 48.72657 9.41721 3523 ft 212 kts 254°
2026-05-07 20:51 48.72260 9.39632 3240 ft 202 kts 254°
2026-05-07 20:52 48.71879 9.37610 2959 ft 198 kts 255°
2026-05-07 20:52 48.71527 9.35682 2803 ft 181 kts 254°
2026-05-07 20:52 48.71186 9.33901 2543 ft 172 kts 253°
2026-05-07 20:52 48.70875 9.32223 2242 ft 163 kts 254°
2026-05-07 20:53 48.70589 9.30656 2062 ft 149 kts 254°
2026-05-07 20:53 48.70307 9.29157 1842 ft 142 kts 253°
2026-05-07 20:53 48.70032 9.27746 1667 ft 142 kts 253°
2026-05-07 20:53 48.69764 9.26307 1482 ft 142 kts 254°
2026-05-07 20:54 48.69493 9.24877 1316 ft 141 kts 255°
2026-05-07 20:54 48.69232 9.23490 1208 ft 123 kts 253°
2026-05-07 20:54 48.69038 9.22460 1228 ft 83 kts 254°
2026-05-07 20:54 48.68903 9.21745 1256 ft 62 kts 254°
2026-05-07 20:55 48.68792 9.21161 1260 ft 54 kts 254°
2026-05-07 20:55 48.68697 9.20657 1274 ft 38 kts 254°
2026-05-07 20:55 48.68681 9.20332 1277 ft 27 kts 279°
2026-05-07 20:55 48.68706 9.20164 1286 ft 10 kts 284°
2026-05-07 20:56 48.68717 9.20102 1287 ft 0 kts 285°
2026-05-07 20:57 48.68717 9.20101 1287 ft 2 kts 285°
2026-05-07 20:57 48.68733 9.20047 1289 ft 6 kts 304°
2026-05-07 20:57 48.68770 9.19985 1293 ft 11 kts 314°
2026-05-07 20:57 48.68828 9.19903 1298 ft 11 kts 325°
2026-05-07 20:58 48.68894 9.19857 1303 ft 9 kts 302°
2026-05-07 20:58 48.68881 9.19768 1306 ft 10 kts 253°
2026-05-07 20:58 48.68854 9.19634 1309 ft 17 kts 255°
2026-05-07 20:58 48.68822 9.19461 1312 ft 12 kts 253°
2026-05-07 20:59 48.68800 9.19351 1314 ft 10 kts 254°
2026-05-07 20:59 48.68812 9.19314 1315 ft 4 kts 343°
2026-05-07 20:59 48.68843 9.19300 1315 ft 5 kts 343°
2026-05-07 20:59 48.68870 9.19288 1315 ft 0 kts 344°